User: anonymous   Login
Location: Alphen
(52.1351°N, 4.6549°E)
Time: 20:51:11
(UTC+00:00)
Language:

Cosmos 1697 Rocket - Orbit

View from above orbital plane
View from above orbital plane
View from above satellite
View from above satellite

Ground track
Ground track

The orbit data is extracted from the following two-line orbital elements,

1 16182U 85097B   21110.55184266  .00000190  00000-0  11997-3 0  9999
2 16182  71.0020 295.3488 0005440  98.9914 321.4498 14.16254658834606
Epoch (UTC): 20 April 2021 13:14:39
Eccentricity: 0.0005440
inclination: 71.0020°
perigee height: 834 km
apogee height: 842 km
right ascension of ascending node: 295.3488°
argument of perigee: 98.9914°
revolutions per day: 14.16254658
mean anomaly at epoch: 321.4498°
orbit number at epoch: 83460

The dashed part of the orbit path shows where the satellite is in the earth's shadow,  

DLR